This is the latest recevied weather packets stored in our database for station/object KG4AGD. If no packets are shown the sender has not sent any weather packets the latest 10 day(s).
| Time | Temp. | Humidity | Pressure | Rain* | Wind** | Luminosity | Snow |
|---|---|---|---|---|---|---|---|
| 1777599714 | 14.44° C | 95% | 1012.1 hPa | 8.89 mm | - | - | - |
| 1777599412 | 15° C | 95% | 1012.1 hPa | 8.89 mm | - | - | - |
| 1777599109 | 15° C | 94% | 1011.8 hPa | 8.89 mm | - | - | - |
| 1777598807 | 15° C | 94% | 1011.8 hPa | 8.89 mm | - | - | - |
| 1777598505 | 15° C | 93% | 1011.8 hPa | 8.89 mm | - | - | - |
| 1777598203 | 15° C | 93% | 1011.8 hPa | 8.89 mm | - | - | - |
| 1777597901 | 15.56° C | 93% | 1011.8 hPa | 8.89 mm | - | - | - |
| 1777597597 | 15.56° C | 93% | 1011.8 hPa | 8.89 mm | - | - | - |
| 1777597295 | 16.11° C | 93% | 1011.5 hPa | 8.89 mm | - | - | - |
| 1777596992 | 16.11° C | 92% | 1011.5 hPa | 8.89 mm | - | - | - |
| 1777596690 | 16.11° C | 92% | 1011.5 hPa | 8.89 mm | - | - | - |
| 1777596388 | 16.11° C | 89% | 1011.5 hPa | 8.89 mm | - | - | - |
| 1777596085 | 16.67° C | 87% | 1011.5 hPa | 8.89 mm | - | - | - |
| 1777595783 | 16.67° C | 87% | 1011.1 hPa | 8.89 mm | - | - | - |
| 1777595481 | 17.22° C | 88% | 1011.5 hPa | 8.89 mm | - | - | - |
| 1777595179 | 17.22° C | 86% | 1011.1 hPa | 8.89 mm | - | - | - |
| 1777594877 | 17.78° C | 85% | 1011.1 hPa | 8.89 mm | - | - | - |
| 1777594575 | 17.78° C | 89% | 1011.1 hPa | 8.89 mm | - | - | - |
| 1777594273 | 18.33° C | 85% | 1011.1 hPa | 8.89 mm | - | - | - |
| 1777593970 | 18.33° C | 88% | 1011.1 hPa | 8.89 mm | - | - | - |
| 1777593668 | 18.89° C | 87% | 1011.1 hPa | 8.89 mm | - | - | - |
| 1777593366 | 18.89° C | 80% | 1010.8 hPa | 8.89 mm | - | - | - |
| 1777593064 | 18.89° C | 80% | 1010.8 hPa | 8.89 mm | - | - | - |
| 1777592761 | 18.89° C | 79% | 1010.8 hPa | 8.89 mm | - | - | - |
| 1777592459 | 19.44° C | 78% | 1010.8 hPa | 8.89 mm | - | - | - |
* Rain since midnight (hover to see other rain measurements)
** Current wind speed in m/s (hover to see current wind gust speed)